N4QD-13 Weather Reports


time (UTC)temp
C
wind
direction
speed
KPH
gust
KPH
rain 1hr
cm
rain 24hr
cm
rain mn
cm
humidity
%
barometer
mb
20260507220746 16 321 4.8 6.4 0.00 0.03 0.03 81 1009.7
20260507220245 16 355 1.6 3.2 0.00 0.03 0.03 81 1009.4
20260507215740 16 326 3.2 3.2 0.00 0.03 0.03 81 1009.2
20260507215238 16 324 1.6 3.2 0.00 0.03 0.03 82 1009.4
20260507214735 16 37 1.6 3.2 0.00 0.03 0.03 81 1009.7
20260507214232 17 321 3.2 4.8 0.00 0.03 0.03 78 1009.6
20260507213727 16 334 4.8 4.8 0.00 0.03 0.03 78 1009.4
20260507213225 16 319 3.2 3.2 0.00 0.03 0.03 79 1009.6
20260507212721 16 3 3.2 4.8 0.00 0.03 0.03 78 1009.4
20260507212218 17 352 3.2 6.4 0.00 0.03 0.03 76 1009.6
20260507211714 16 60 4.8 9.7 0.00 0.03 0.03 77 1009.5
20260507211210 17 23 3.2 3.2 0.00 0.03 0.03 75 1009.2
20260507210708 18 331 6.4 9.7 0.00 0.03 0.03 74 1009.2
20260507210204 17 8 3.2 4.8 0.00 0.03 0.03 75 1009.4
20260507205701 17 14 1.6 3.2 0.00 0.03 0.03 75 1009.4
20260507205158 17 331 3.2 3.2 0.00 0.03 0.03 75 1009.2
20260507204654 17 342 3.2 4.8 0.00 0.03 0.03 73 1009.4
20260507204152 17 337 4.8 6.4 0.00 0.03 0.03 74 1009.2
20260507203649 17 344 3.2 9.7 0.00 0.03 0.03 73 1009.5
20260507203146 17 285 1.6 1.6 0.00 0.03 0.03 76 1009.5
20260507202642 17 337 3.2 3.2 0.00 0.03 0.03 73 1009.5
20260507202138 18 33 3.2 3.2 0.00 0.03 0.03 71 1009.6
20260507201633 17 349 3.2 4.8 0.00 0.03 0.03 70 1009.8
20260507201131 17 332 1.6 1.6 0.00 0.03 0.03 72 1009.7
20260507200627 17 9 0.0 1.6 0.00 0.03 0.03 69 1009.7
20260507200123 17 30 0.0 0.0 0.00 0.03 0.03 69 1009.8
20260507195620 17 340 1.6 3.2 0.00 0.03 0.03 69 1009.7
20260507195117 16 23 1.6 1.6 0.00 0.03 0.03 71 1009.7
20260507194614 17 107 4.8 6.4 0.00 0.03 0.03 67 1009.8
20260507194109 17 0 0.0 0.0 0.00 0.03 0.03 69 1010.1
20260507193607 17 352 0.0 0.0 0.00 0.03 0.03 68 1010.2
20260507193103 17 50 1.6 1.6 0.00 0.03 0.03 68 1010.3
20260507192600 16 347 6.4 9.7 0.00 0.03 0.03 69 1010.3
20260507192057 17 17 6.4 9.7 0.00 0.03 0.03 69 1010.5
20260507191552 18 47 3.2 3.2 0.00 0.03 0.03 66 1010.1
20260507191049 17 86 3.2 4.8 0.00 0.03 0.03 66 1010.4
20260507190546 17 126 1.6 3.2 0.00 0.03 0.03 64 1010.6
20260507190045 17 8 0.0 1.6 0.00 0.03 0.03 69 1010.7
20260507185543 17 305 3.2 3.2 0.00 0.03 0.03 67 1010.6
20260507185039 17 64 4.8 4.8 0.00 0.03 0.03 69 1010.6
20260507184538 17 332 6.4 6.4 0.00 0.03 0.03 68 1010.9
20260507184035 17 66 3.2 3.2 0.00 0.03 0.03 68 1010.8
20260507183531 17 313 1.6 3.2 0.00 0.03 0.03 70 1010.6
20260507183028 16 316 1.6 3.2 0.00 0.03 0.03 70 1010.9
20260507182524 16 24 1.6 3.2 0.00 0.03 0.03 69 1011.0
20260507182020 16 95 3.2 6.4 0.00 0.03 0.03 71 1010.8
20260507181518 17 129 3.2 3.2 0.00 0.03 0.03 72 1011.2
20260507181014 16 328 3.2 3.2 0.00 0.03 0.03 72 1011.0
20260507180510 16 332 4.8 4.8 0.00 0.03 0.03 72 1011.2
20260507180007 15 10 6.4 6.4 0.00 0.03 0.03 73 1011.4
20260507175503 15 108 3.2 6.4 0.00 0.03 0.03 76 1011.5
20260507175001 15 57 1.6 3.2 0.00 0.03 0.03 75 1011.5
20260507174458 15 19 3.2 4.8 0.00 0.03 0.03 76 1011.3
20260507173956 15 44 4.8 4.8 0.00 0.03 0.03 75 1011.5
20260507173452 16 335 4.8 4.8 0.00 0.03 0.03 74 1011.8
20260507172949 15 63 3.2 3.2 0.00 0.03 0.03 72 1011.7
20260507172445 15 14 4.8 4.8 0.00 0.03 0.03 74 1011.8
20260507171942 15 293 4.8 4.8 0.00 0.03 0.03 76 1011.7
20260507171438 16 6 1.6 1.6 0.00 0.03 0.03 73 1011.9
20260507170936 15 20 3.2 4.8 0.00 0.03 0.03 75 1012.0
20260507170432 15 21 0.0 0.0 0.00 0.03 0.03 76 1012.0
20260507165928 15 358 1.6 1.6 0.00 0.03 0.03 76 1012.4
20260507165424 15 350 1.6 1.6 0.00 0.03 0.03 79 1012.5
20260507164920 15 344 0.0 1.6 0.00 0.03 0.03 76 1012.3
20260507164418 15 350 0.0 1.6 0.00 0.03 0.03 75 1012.2
20260507163915 15 261 0.0 1.6 0.00 0.03 0.03 74 1012.4
20260507163412 15 249 1.6 1.6 0.00 0.03 0.03 76 1012.4
20260507162909 15 288 3.2 4.8 0.00 0.03 0.03 76 1012.6
20260507162404 14 311 0.0 1.6 0.00 0.03 0.03 77 1012.6
20260507161902 15 195 3.2 4.8 0.00 0.03 0.03 76 1012.8
20260507161357 13 14 0.0 0.0 0.00 0.03 0.03 79 1012.9
20260507160854 14 313 3.2 3.2 0.00 0.03 0.03 76 1013.1
20260507160350 13 338 0.0 0.0 0.00 0.03 0.03 80 1013.1
20260507155846 13 347 0.0 1.6 0.00 0.03 0.03 80 1013.4
20260507155342 12 8 0.0 0.0 0.00 0.03 0.03 81 1013.4
20260507154839 13 158 1.6 1.6 0.00 0.03 0.03 79 1013.3
20260507154337 13 199 1.6 1.6 0.00 0.03 0.03 80 1013.2
20260507153833 13 215 4.8 4.8 0.00 0.03 0.03 81 1013.3
20260507153330 12 226 1.6 1.6 0.00 0.03 0.03 83 1013.7
20260507152827 12 202 1.6 3.2 0.00 0.03 0.03 82 1013.4
20260507152323 12 332 1.6 3.2 0.00 0.03 0.03 84 1013.3
20260507151819 12 184 1.6 1.6 0.00 0.03 0.03 83 1013.3
20260507151315 12 289 1.6 1.6 0.00 0.03 0.03 84 1013.5
20260507150812 12 319 1.6 1.6 0.00 0.03 0.03 85 1013.3
20260507150309 12 144 3.2 4.8 0.00 0.03 0.03 85 1013.4
20260507145805 12 170 1.6 1.6 0.00 0.03 0.03 87 1013.6
20260507145302 12 52 0.0 0.0 0.00 0.03 0.03 89 1013.6
20260507144759 11 219 1.6 1.6 0.00 0.03 0.03 89 1013.4
20260507144256 11 342 1.6 3.2 0.00 0.03 0.03 88 1013.7
20260507143752 11 155 0.0 1.6 0.00 0.03 0.03 89 1013.6
20260507143250 11 212 1.6 3.2 0.00 0.03 0.03 89 1013.9
20260507142746 11 73 1.6 1.6 0.00 0.03 0.03 90 1013.8
20260507142242 11 151 3.2 4.8 0.00 0.03 0.03 90 1014.0
20260507141739 11 112 3.2 3.2 0.00 0.03 0.03 91 1014.0
20260507141236 11 157 3.2 4.8 0.00 0.03 0.03 91 1014.0
20260507140732 11 254 1.6 1.6 0.00 0.03 0.03 91 1014.1
20260507140230 11 179 1.6 3.2 0.00 0.03 0.03 92 1014.0
20260507135727 11 193 1.6 1.6 0.00 0.03 0.03 92 1014.2
20260507135224 11 181 4.8 6.4 0.00 0.03 0.03 93 1014.1
20260507134720 11 176 3.2 3.2 0.00 0.03 0.03 94 1013.9
20260507134216 11 226 1.6 1.6 0.00 0.03 0.03 95 1014.0
20260507133712 11 218 4.8 4.8 0.00 0.03 0.03 95 1014.1
20260507133209 11 156 3.2 4.8 0.00 0.03 0.03 95 1014.1
20260507132707 11 136 3.2 4.8 0.00 0.03 0.03 94 1014.1
20260507132203 11 228 3.2 3.2 0.00 0.03 0.03 95 1014.0
20260507131700 11 200 1.6 3.2 0.00 0.03 0.03 95 1014.1
20260507131158 11 203 3.2 3.2 0.00 0.03 0.03 94 1014.2
20260507130654 11 188 4.8 4.8 0.00 0.03 0.03 94 1014.2
20260507130152 11 184 6.4 6.4 0.00 0.03 0.03 94 1014.2
20260507125650 11 193 3.2 4.8 0.00 0.03 0.03 95 1014.1
20260507125148 11 152 1.6 1.6 0.00 0.03 0.03 95 1014.2
20260507124643 11 163 3.2 3.2 0.00 0.03 0.03 95 1014.2
20260507124142 11 226 4.8 4.8 0.00 0.03 0.03 96 1014.0
20260507123640 11 180 3.2 4.8 0.00 0.03 0.03 96 1014.0
20260507123136 11 184 3.2 4.8 0.00 0.03 0.03 96 1014.3
20260507122632 11 127 1.6 1.6 0.00 0.03 0.03 96 1014.3
20260507122128 11 126 3.2 3.2 0.00 0.03 0.03 96 1014.0
20260507121624 11 129 3.2 3.2 0.00 0.03 0.03 96 1013.9
20260507121120 11 232 3.2 3.2 0.00 0.03 0.03 96 1013.6
20260507120616 11 104 3.2 3.2 0.00 0.03 0.03 96 1013.8
20260507120113 11 68 0.0 0.0 0.00 0.03 0.03 96 1013.7
20260507115609 11 213 1.6 1.6 0.00 0.03 0.03 96 1013.7
20260507115105 11 59 0.0 0.0 0.00 0.03 0.03 97 1013.9
20260507114601 11 196 3.2 3.2 0.00 0.03 0.03 97 1013.7
20260507114058 11 352 0.0 1.6 0.00 0.03 0.03 98 1013.6
20260507113555 11 237 0.0 0.0 0.00 0.03 0.03 98 1013.6
20260507113053 11 190 3.2 3.2 0.00 0.03 0.03 97 1013.6
20260507112550 11 186 3.2 3.2 0.00 0.03 0.03 98 1013.5
20260507112047 11 293 1.6 1.6 0.00 0.03 0.03 98 1013.5
20260507111544 11 212 3.2 4.8 0.00 0.03 0.03 98 1013.6
20260507111041 11 162 1.6 3.2 0.00 0.03 0.03 98 1013.5
20260507110537 11 180 3.2 4.8 0.00 0.03 0.03 98 1013.5
20260507110033 11 293 0.0 0.0 0.00 0.03 0.03 99 1013.2
20260507105531 11 162 1.6 1.6 0.00 0.03 0.03 99 1013.4
20260507105026 11 214 1.6 3.2 0.00 0.03 0.03 99 1013.3
20260507104524 11 354 0.0 0.0 0.00 0.03 0.03 99 1013.2
20260507104020 11 28 0.0 0.0 0.00 0.03 0.03 99 1013.0
20260507103517 11 153 1.6 1.6 0.00 0.03 0.03 99 1012.9
20260507103013 11 215 1.6 1.6 0.00 0.03 0.03 99 1013.1
20260507102510 11 35 0.0 0.0 0.00 0.03 0.03 99 1013.3
20260507102007 11 2 0.0 0.0 0.00 0.03 0.03 99 1013.4
20260507101501 11 292 1.6 1.6 0.00 0.03 0.03 99 1013.2
20260507100958 11 124 1.6 3.2 0.00 0.03 0.03 99 1013.5
20260507100455 11 8 0.0 0.0 0.00 0.03 0.03 99 1013.2
20260507095954 11 1 0.0 0.0 0.00 0.03 0.03 99 1013.2
20260507095451 11 347 0.0 0.0 0.00 0.03 0.03 99 1013.2
20260507094948 11 328 0.0 0.0 0.00 0.03 0.03 99 1013.3
20260507094444 11 137 1.6 1.6 0.00 0.03 0.03 99 1013.2
20260507093941 11 47 0.0 0.0 0.00 0.03 0.03 99 1013.2
20260507093438 11 351 0.0 1.6 0.00 0.03 0.03 99 1012.8
20260507092937 11 82 1.6 1.6 0.00 0.03 0.03 99 1012.6
20260507092433 11 230 1.6 1.6 0.00 0.03 0.03 99 1012.9
20260507091930 11 284 0.0 1.6 0.00 0.03 0.03 99 1012.9
20260507091426 11 145 0.0 1.6 0.00 0.03 0.03 99 1013.0
20260507090922 11 60 1.6 1.6 0.00 0.03 0.03 99 1012.9
20260507090418 11 16 0.0 0.0 0.00 0.03 0.03 99 1012.9
20260507085915 11 13 0.0 0.0 0.00 0.03 0.03 99 1013.1
20260507085412 11 80 0.0 0.0 0.00 0.03 0.03 99 1012.8
20260507084909 11 279 1.6 1.6 0.00 0.03 0.03 99 1012.8
20260507084406 11 212 1.6 1.6 0.00 0.03 0.03 99 1012.6
20260507083903 11 218 1.6 3.2 0.00 0.03 0.03 99 1012.8
20260507083359 11 246 3.2 3.2 0.00 0.03 0.03 99 1012.2
20260507082856 11 185 3.2 4.8 0.00 0.03 0.03 99 1012.6
20260507082351 11 277 1.6 1.6 0.00 0.03 0.03 99 1012.6
20260507081849 11 78 1.6 3.2 0.00 0.03 0.03 99 1012.8
20260507081345 11 249 3.2 4.8 0.00 0.03 0.03 99 1012.9
20260507080842 11 195 3.2 4.8 0.00 0.03 0.03 99 1012.8
20260507080338 11 214 1.6 3.2 0.00 0.03 0.03 99 1013.0
20260507075833 12 24 0.0 1.6 0.00 0.03 0.03 99 1013.0
20260507075330 12 216 3.2 3.2 0.00 0.03 0.03 99 1012.8
20260507074826 12 196 4.8 6.4 0.00 0.03 0.03 99 1013.1
20260507074324 12 132 1.6 1.6 0.00 0.03 0.03 99 1012.9
20260507073821 12 72 1.6 3.2 0.00 0.03 0.03 99 1012.5
20260507073318 12 137 6.4 6.4 0.00 0.03 0.03 99 1012.8
20260507072815 12 132 3.2 4.8 0.00 0.03 0.03 99 1012.4
20260507072312 12 203 3.2 4.8 0.00 0.03 0.03 99 1012.1
20260507071809 12 126 3.2 3.2 0.00 0.03 0.03 99 1012.0
20260507071306 12 246 3.2 3.2 0.00 0.03 0.03 99 1012.0
20260507070802 12 217 6.4 9.7 0.00 0.03 0.03 99 1012.3
20260507070300 12 149 3.2 4.8 0.00 0.03 0.03 99 1012.2
20260507065756 12 181 6.4 6.4 0.00 0.03 0.03 99 1012.2
20260507065253 12 101 6.4 9.7 0.00 0.03 0.03 99 1012.3
20260507064750 12 131 4.8 6.4 0.00 0.03 0.03 99 1011.9
20260507064249 12 195 4.8 6.4 0.00 0.03 0.03 99 1012.1
20260507063746 12 138 4.8 6.4 0.00 0.03 0.03 99 1012.3
20260507063243 12 188 6.4 9.7 0.00 0.03 0.03 99 1012.3
20260507062740 12 118 3.2 4.8 0.00 0.03 0.03 99 1012.3
20260507062237 12 187 3.2 4.8 0.00 0.03 0.03 99 1012.2
20260507061735 12 228 8.0 11.3 0.00 0.03 0.03 99 1011.9
20260507061233 12 166 8.0 12.9 0.00 0.03 0.03 99 1012.0
20260507060731 12 199 4.8 6.4 0.00 0.03 0.03 99 1011.9
20260507060227 12 257 3.2 3.2 0.00 0.03 0.03 99 1012.3
20260507055723 13 217 6.4 6.4 0.00 0.03 0.03 99 1012.3
20260507055219 13 87 4.8 6.4 0.00 0.03 0.03 99 1012.5
20260507054715 13 225 3.2 4.8 0.00 0.03 0.03 99 1012.3
20260507054212 13 176 6.4 6.4 0.00 0.03 0.03 99 1012.3
20260507053710 13 303 6.4 9.7 0.00 0.03 0.03 99 1012.6
20260507053207 13 197 8.0 11.3 0.00 0.03 0.03 99 1012.3
20260507052706 13 222 8.0 9.7 0.00 0.03 0.03 99 1011.8
20260507052202 13 159 3.2 4.8 0.00 0.03 0.03 99 1011.9
20260507051700 13 225 6.4 12.9 0.00 0.03 0.03 99 1012.2
20260507051156 13 152 6.4 9.7 0.00 0.03 0.03 99 1011.8
20260507050653 13 197 12.9 17.7 0.00 0.03 0.03 99 1011.9
20260507050150 13 184 3.2 3.2 0.00 0.03 0.03 99 1011.7
20260507045646 13 42 3.2 4.8 0.00 0.03 0.03 99 1011.3
20260507045143 13 198 3.2 3.2 0.00 0.03 0.03 99 1011.5
20260507044640 13 130 6.4 6.4 0.00 0.03 0.03 99 1011.3
20260507044137 14 128 3.2 3.2 0.00 0.03 0.03 99 1011.1
20260507043633 13 359 0.0 1.6 0.00 0.03 0.03 99 1010.7
20260507043130 13 354 0.0 0.0 0.00 0.03 0.03 99 1011.1
20260507042626 14 0 1.6 1.6 0.00 0.03 0.03 99 1011.4
20260507042121 14 7 0.0 1.6 0.00 0.03 0.03 99 1011.5
20260507041619 14 192 1.6 3.2 0.00 0.03 0.03 99 1011.4
20260507041115 14 143 6.4 9.7 0.18 0.03 0.03 99 1011.9
20260507040613 14 172 3.2 6.4 0.30 0.03 0.03 99 1011.8
20260507040109 15 172 4.8 4.8 1.02 0.00 0.00 99 1011.7
20260507035605 15 150 6.4 11.3 1.55 0.66 0.66 99 1012.2
20260507035101 15 161 3.2 6.4 0.66 0.51 0.51 99 1012.6
20260507034558 15 341 6.4 11.3 0.00 0.41 0.41 99 1012.1
20260507034056 15 204 3.2 4.8 0.00 0.41 0.41 99 1012.0
20260507033554 15 15 1.6 3.2 0.00 0.41 0.41 99 1011.9
20260507033050 16 159 4.8 6.4 0.00 0.41 0.41 99 1011.8
20260507032548 16 209 1.6 1.6 0.00 0.41 0.41 99 1011.8
20260507032044 16 181 3.2 3.2 0.13 0.41 0.41 99 1011.7
20260507031540 16 102 3.2 3.2 0.30 0.41 0.41 99 1011.8
20260507031037 16 282 4.8 4.8 0.18 0.38 0.38 99 1011.6
20260507030534 16 174 6.4 9.7 0.00 0.36 0.36 99 1011.6
20260507030032 16 270 6.4 6.4 0.00 0.36 0.36 99 1011.6
20260507025529 16 180 3.2 4.8 0.00 0.36 0.36 99 1011.4
20260507025026 16 356 0.0 0.0 0.00 0.36 0.36 99 1011.5
20260507024524 16 9 0.0 0.0 0.00 0.36 0.36 99 1011.3
20260507024020 16 9 0.0 0.0 0.00 0.36 0.36 99 1011.5
20260507023516 16 23 0.0 0.0 0.13 0.36 0.36 99 1011.6
20260507023014 16 97 3.2 4.8 0.13 0.36 0.36 99 1011.4
20260507022511 16 10 1.6 3.2 0.00 0.33 0.33 99 1011.1
20260507022006 17 201 1.6 1.6 0.79 0.33 0.33 99 1011.1
20260507021502 17 279 4.8 6.4 0.79 0.33 0.33 98 1011.1
20260507020959 17 169 8.0 11.3 0.00 0.20 0.20 93 1010.9
20260507020456 17 192 3.2 3.2 0.00 0.20 0.20 94 1010.9
20260507015953 17 216 4.8 6.4 0.00 0.20 0.20 95 1010.8
20260507015452 17 226 4.8 6.4 0.00 0.20 0.20 94 1010.7
20260507014948 17 129 3.2 4.8 0.00 0.20 0.20 94 1010.9
20260507014445 18 208 1.6 3.2 0.00 0.20 0.20 93 1010.7
20260507013941 18 202 3.2 6.4 0.00 0.20 0.20 92 1010.6
20260507013437 18 128 3.2 6.4 0.00 0.20 0.20 92 1010.3
20260507012935 18 223 0.0 1.6 0.00 0.20 0.20 93 1010.3
20260507012431 18 225 3.2 4.8 0.00 0.20 0.20 94 1010.3
20260507011928 18 235 3.2 3.2 0.00 0.20 0.20 94 1010.7
20260507011426 18 188 1.6 1.6 0.00 0.20 0.20 94 1010.7
20260507010925 18 233 1.6 3.2 0.00 0.20 0.20 94 1010.8
20260507010421 18 109 1.6 1.6 0.00 0.20 0.20 93 1010.7
20260507005918 18 156 1.6 1.6 0.00 0.20 0.20 92 1011.0
20260507005415 18 322 3.2 3.2 0.00 0.20 0.20 92 1010.7
20260507004912 19 184 3.2 4.8 0.00 0.20 0.20 91 1010.9
20260507004409 20 222 3.2 3.2 0.00 0.20 0.20 90 1010.6
20260507003906 20 192 1.6 3.2 0.00 0.20 0.20 88 1010.9
20260507003401 20 20 3.2 3.2 0.00 0.20 0.20 88 1010.8
20260507002857 20 300 0.0 0.0 0.00 0.20 0.20 87 1010.7
20260507002353 21 0 0.0 0.0 0.00 0.20 0.20 86 1010.6
20260507001850 21 6 0.0 0.0 0.00 0.20 0.20 85 1010.6
20260507001347 21 71 1.6 1.6 0.00 0.20 0.20 84 1010.5
20260507000843 21 89 1.6 3.2 0.00 0.20 0.20 83 1010.3
20260507000339 21 42 1.6 1.6 0.00 0.20 0.20 82 1010.0
20260506235836 21 55 3.2 3.2 0.00 0.20 0.20 81 1009.8
20260506235333 21 61 1.6 1.6 0.00 0.20 0.20 82 1009.8
20260506234828 21 5 1.6 1.6 0.00 0.20 0.20 82 1009.7
20260506234326 21 328 6.4 11.3 0.00 0.20 0.20 82 1009.8
20260506233824 21 0 8.0 11.3 0.00 0.20 0.20 81 1009.5
20260506233319 21 93 6.4 6.4 0.00 0.20 0.20 82 1009.6
20260506232817 21 346 4.8 6.4 0.00 0.20 0.20 81 1009.8
20260506232312 22 311 6.4 11.3 0.00 0.20 0.20 81 1009.8
20260506231809 22 355 3.2 4.8 0.00 0.20 0.20 81 1009.9
20260506231307 22 16 3.2 4.8 0.00 0.20 0.20 80 1009.8
20260506230804 22 350 3.2 4.8 0.00 0.20 0.20 79 1009.6
20260506230301 22 71 3.2 3.2 0.00 0.20 0.20 79 1009.6
20260506225757 22 9 3.2 3.2 0.00 0.20 0.20 79 1009.5
20260506225254 22 358 1.6 3.2 0.00 0.20 0.20 79 1009.4
20260506224750 22 347 6.4 9.7 0.00 0.20 0.20 78 1009.6
20260506224248 22 18 3.2 3.2 0.00 0.20 0.20 78 1009.2
20260506223744 22 65 1.6 3.2 0.00 0.20 0.20 78 1009.4
20260506223240 22 26 3.2 4.8 0.00 0.20 0.20 77 1009.5
20260506222737 22 12 3.2 4.8 0.00 0.20 0.20 77 1009.5
20260506222232 22 5 11.3 14.5 0.00 0.20 0.20 77 1009.1
20260506221731 22 56 3.2 3.2 0.00 0.20 0.20 77 1009.5
20260506221229 23 15 6.4 9.7 0.00 0.20 0.20 76 1009.4